Year,Month,Day,Hour,Minute,Value (Times are PST for windspeed in km/hr)
2018,07,12,00,00,0.00
2018,07,12,00,01,0.00
2018,07,12,00,02,0.00
2018,07,12,00,03,0.00
2018,07,12,00,04,0.00
2018,07,12,00,05,0.70
2018,07,12,00,06,2.60
2018,07,12,00,07,0.70
2018,07,12,00,08,0.80
2018,07,12,00,09,1.80
2018,07,12,00,10,2.10
2018,07,12,00,11,0.30
2018,07,12,00,12,1.00
2018,07,12,00,13,2.50
2018,07,12,00,14,1.70
2018,07,12,00,15,0.00
2018,07,12,00,16,0.00
2018,07,12,00,17,0.00
2018,07,12,00,18,0.00
2018,07,12,00,19,0.00
2018,07,12,00,20,0.00
2018,07,12,00,21,0.00
2018,07,12,00,22,0.00
2018,07,12,00,23,0.00
2018,07,12,00,24,0.00
2018,07,12,00,25,0.00
2018,07,12,00,26,0.00
2018,07,12,00,27,0.00
2018,07,12,00,28,0.00
2018,07,12,00,29,0.00
2018,07,12,00,30,0.00
2018,07,12,00,31,0.00
2018,07,12,00,32,0.00
2018,07,12,00,33,0.00
2018,07,12,00,34,0.00
2018,07,12,00,35,0.00
2018,07,12,00,36,0.00
2018,07,12,00,37,0.00
2018,07,12,00,38,0.00
2018,07,12,00,39,0.00
2018,07,12,00,40,0.00
2018,07,12,00,41,0.00
2018,07,12,00,42,0.00
2018,07,12,00,43,0.00
2018,07,12,00,44,0.00
2018,07,12,00,45,0.00
2018,07,12,00,46,0.00
2018,07,12,00,47,0.00
2018,07,12,00,48,0.00
2018,07,12,00,49,0.00
2018,07,12,00,50,0.00
2018,07,12,00,51,0.00
2018,07,12,00,52,0.00
2018,07,12,00,53,0.00
2018,07,12,00,54,0.00
2018,07,12,00,55,0.00
2018,07,12,00,56,0.00
2018,07,12,00,57,0.00
2018,07,12,00,58,0.00
2018,07,12,00,59,0.00
2018,07,12,01,00,0.00
2018,07,12,01,01,0.00
2018,07,12,01,02,0.00
2018,07,12,01,03,0.00
2018,07,12,01,04,0.00
2018,07,12,01,05,0.00
2018,07,12,01,06,3.50
2018,07,12,01,07,3.80
2018,07,12,01,08,3.40
2018,07,12,01,09,3.00
2018,07,12,01,10,2.60
2018,07,12,01,11,3.50
2018,07,12,01,12,3.30
2018,07,12,01,13,0.90
2018,07,12,01,14,3.90
2018,07,12,01,15,2.80
2018,07,12,01,16,1.90
2018,07,12,01,17,3.30
2018,07,12,01,18,2.90
2018,07,12,01,19,1.70
2018,07,12,01,20,1.60
2018,07,12,01,21,2.70
2018,07,12,01,22,1.80
2018,07,12,01,23,1.30
2018,07,12,01,24,0.80
2018,07,12,01,25,1.80
2018,07,12,01,26,0.50
2018,07,12,01,27,0.10
2018,07,12,01,28,0.50
2018,07,12,01,29,0.00
2018,07,12,01,30,2.40
2018,07,12,01,31,2.50
2018,07,12,01,32,1.10
2018,07,12,01,33,0.00
2018,07,12,01,34,0.00
2018,07,12,01,35,0.00
2018,07,12,01,36,0.00
2018,07,12,01,37,0.00
2018,07,12,01,38,0.00
2018,07,12,01,39,0.00
2018,07,12,01,40,0.10
2018,07,12,01,41,0.00
2018,07,12,01,42,0.00
2018,07,12,01,43,0.00
2018,07,12,01,44,0.00
2018,07,12,01,45,0.00
2018,07,12,01,46,0.00
2018,07,12,01,47,0.00
2018,07,12,01,48,0.00
2018,07,12,01,49,0.00
2018,07,12,01,50,0.00
2018,07,12,01,51,0.00
2018,07,12,01,52,0.00
2018,07,12,01,53,0.00
2018,07,12,01,54,0.00
2018,07,12,01,55,0.00
2018,07,12,01,56,0.00
2018,07,12,01,57,1.00
2018,07,12,01,58,4.20
2018,07,12,01,59,3.00
2018,07,12,02,00,2.40
2018,07,12,02,01,1.60
2018,07,12,02,02,4.00
2018,07,12,02,03,3.70
2018,07,12,02,04,4.50
2018,07,12,02,05,3.20
2018,07,12,02,06,4.20
2018,07,12,02,07,2.90
2018,07,12,02,08,2.00
2018,07,12,02,09,2.30
2018,07,12,02,10,1.50
2018,07,12,02,11,3.00
2018,07,12,02,12,3.10
2018,07,12,02,13,1.30
2018,07,12,02,14,2.70
2018,07,12,02,15,0.80
2018,07,12,02,16,3.60
2018,07,12,02,17,1.90
2018,07,12,02,18,2.50
2018,07,12,02,19,3.10
2018,07,12,02,20,0.90
2018,07,12,02,21,0.00
2018,07,12,02,22,0.00
2018,07,12,02,23,0.00
2018,07,12,02,24,1.60
2018,07,12,02,25,2.10
2018,07,12,02,26,2.20
2018,07,12,02,27,2.40
2018,07,12,02,28,1.90
2018,07,12,02,29,0.90
2018,07,12,02,30,0.90
2018,07,12,02,31,0.60
2018,07,12,02,32,2.70
2018,07,12,02,33,1.80
2018,07,12,02,34,2.30
2018,07,12,02,35,1.50
2018,07,12,02,36,2.30
2018,07,12,02,37,3.30
2018,07,12,02,38,1.60
2018,07,12,02,39,1.20
2018,07,12,02,40,0.70
2018,07,12,02,41,0.80
2018,07,12,02,42,0.30
2018,07,12,02,43,0.00
2018,07,12,02,44,0.00
2018,07,12,02,45,0.00
2018,07,12,02,46,0.00
2018,07,12,02,47,0.00
2018,07,12,02,48,0.00
2018,07,12,02,49,0.00
2018,07,12,02,50,0.00
2018,07,12,02,51,2.70
2018,07,12,02,52,2.10
2018,07,12,02,53,1.30
2018,07,12,02,54,1.80
2018,07,12,02,55,2.80
2018,07,12,02,56,2.50
2018,07,12,02,57,2.60
2018,07,12,02,58,1.80
2018,07,12,02,59,2.20
2018,07,12,03,00,0.10
2018,07,12,03,01,2.10
2018,07,12,03,02,1.70
2018,07,12,03,03,2.20
2018,07,12,03,04,2.40
2018,07,12,03,05,2.20
2018,07,12,03,06,0.20
2018,07,12,03,07,2.00
2018,07,12,03,08,2.40
2018,07,12,03,09,0.30
2018,07,12,03,10,0.00
2018,07,12,03,11,1.40
2018,07,12,03,12,1.70
2018,07,12,03,13,0.00
2018,07,12,03,14,0.20
2018,07,12,03,15,1.70
2018,07,12,03,16,1.10
2018,07,12,03,17,0.00
2018,07,12,03,18,0.00
2018,07,12,03,19,0.10
2018,07,12,03,20,2.70
2018,07,12,03,21,0.30
2018,07,12,03,22,0.00
2018,07,12,03,23,0.00
2018,07,12,03,24,0.00
2018,07,12,03,25,0.00
2018,07,12,03,26,0.00
2018,07,12,03,27,0.00
2018,07,12,03,28,0.00
2018,07,12,03,29,0.00
2018,07,12,03,30,1.30
2018,07,12,03,31,0.20
2018,07,12,03,32,1.10
2018,07,12,03,33,2.40
2018,07,12,03,34,1.60
2018,07,12,03,35,4.10
2018,07,12,03,36,4.90
2018,07,12,03,37,3.20
2018,07,12,03,38,3.30
2018,07,12,03,39,6.30
2018,07,12,03,40,4.40
2018,07,12,03,41,4.80
2018,07,12,03,42,5.30
2018,07,12,03,43,5.50
2018,07,12,03,44,3.10
2018,07,12,03,45,5.40
2018,07,12,03,46,3.80
2018,07,12,03,47,4.50
2018,07,12,03,48,3.30
2018,07,12,03,49,3.40
2018,07,12,03,50,3.40
2018,07,12,03,51,2.80
2018,07,12,03,52,3.70
2018,07,12,03,53,2.60
2018,07,12,03,54,4.70
2018,07,12,03,55,2.40
2018,07,12,03,56,2.00
2018,07,12,03,57,3.10
2018,07,12,03,58,3.70
2018,07,12,03,59,1.60
2018,07,12,04,00,2.90
2018,07,12,04,01,4.80
2018,07,12,04,02,3.10
2018,07,12,04,03,4.90
2018,07,12,04,04,3.70
2018,07,12,04,05,4.80
2018,07,12,04,06,3.60
2018,07,12,04,07,2.50
2018,07,12,04,08,2.20
2018,07,12,04,09,3.70
2018,07,12,04,10,2.20
2018,07,12,04,11,3.10
2018,07,12,04,12,3.60
2018,07,12,04,13,3.20
2018,07,12,04,14,3.50
2018,07,12,04,15,4.60
2018,07,12,04,16,3.80
2018,07,12,04,17,2.80
2018,07,12,04,18,3.80
2018,07,12,04,19,2.50
2018,07,12,04,20,1.40
2018,07,12,04,21,0.70
2018,07,12,04,22,2.90
2018,07,12,04,23,3.40
2018,07,12,04,24,4.50
2018,07,12,04,25,4.00
2018,07,12,04,26,3.40
2018,07,12,04,27,3.40
2018,07,12,04,28,3.10
2018,07,12,04,29,0.70
2018,07,12,04,30,3.90
2018,07,12,04,31,2.30
2018,07,12,04,32,2.90
2018,07,12,04,33,2.00
2018,07,12,04,34,0.00
2018,07,12,04,35,2.60
2018,07,12,04,36,1.40
2018,07,12,04,37,0.20
2018,07,12,04,38,2.70
2018,07,12,04,39,2.50
2018,07,12,04,40,2.90
2018,07,12,04,41,2.80
2018,07,12,04,42,2.40
2018,07,12,04,43,2.00
2018,07,12,04,44,2.90
2018,07,12,04,45,2.20
2018,07,12,04,46,2.30
2018,07,12,04,47,3.00
2018,07,12,04,48,4.40
2018,07,12,04,49,1.60
2018,07,12,04,50,2.20
2018,07,12,04,51,2.40
2018,07,12,04,52,4.00
2018,07,12,04,53,2.60
2018,07,12,04,54,3.70
2018,07,12,04,55,4.30
2018,07,12,04,56,4.90
2018,07,12,04,57,3.80
2018,07,12,04,58,3.20
2018,07,12,04,59,1.40
2018,07,12,05,00,2.90
2018,07,12,05,01,2.00
2018,07,12,05,02,2.70
2018,07,12,05,03,3.30
2018,07,12,05,04,0.30
2018,07,12,05,05,0.00
2018,07,12,05,06,0.50
2018,07,12,05,07,2.50
2018,07,12,05,08,1.80
2018,07,12,05,09,0.00
2018,07,12,05,10,0.50
2018,07,12,05,11,1.70
2018,07,12,05,12,3.20
2018,07,12,05,13,1.90
2018,07,12,05,14,2.90
2018,07,12,05,15,3.70
2018,07,12,05,16,2.30
2018,07,12,05,17,2.90
2018,07,12,05,18,2.00
2018,07,12,05,19,1.50
2018,07,12,05,20,3.80
2018,07,12,05,21,1.60
2018,07,12,05,22,1.70
2018,07,12,05,23,5.60
2018,07,12,05,24,4.30
2018,07,12,05,25,3.90
2018,07,12,05,26,2.10
2018,07,12,05,27,5.10
2018,07,12,05,28,2.30
2018,07,12,05,29,1.40
2018,07,12,05,30,0.80
2018,07,12,05,31,0.90
2018,07,12,05,32,1.00
2018,07,12,05,33,2.80
2018,07,12,05,34,0.00
2018,07,12,05,35,0.00
2018,07,12,05,36,0.00
2018,07,12,05,37,0.00
2018,07,12,05,38,0.00
2018,07,12,05,39,0.00
2018,07,12,05,40,0.00
2018,07,12,05,41,0.00
2018,07,12,05,42,0.00
2018,07,12,05,43,2.40
2018,07,12,05,44,0.70
2018,07,12,05,45,1.70
2018,07,12,05,46,2.90
2018,07,12,05,47,4.00
2018,07,12,05,48,5.40
2018,07,12,05,49,3.10
2018,07,12,05,50,1.30
2018,07,12,05,51,1.20
2018,07,12,05,52,2.80
2018,07,12,05,53,1.60
2018,07,12,05,54,2.40
2018,07,12,05,55,2.10
2018,07,12,05,56,3.20
2018,07,12,05,57,5.10
2018,07,12,05,58,2.60
2018,07,12,05,59,1.20
2018,07,12,06,00,0.70
2018,07,12,06,01,4.00
2018,07,12,06,02,2.60
2018,07,12,06,03,2.20
2018,07,12,06,04,3.60
2018,07,12,06,05,4.00
2018,07,12,06,06,1.70
2018,07,12,06,07,1.90
2018,07,12,06,08,3.50
2018,07,12,06,09,2.10
2018,07,12,06,10,0.20
2018,07,12,06,11,0.40
2018,07,12,06,12,0.80
2018,07,12,06,13,2.10
2018,07,12,06,14,4.20
2018,07,12,06,15,2.80
2018,07,12,06,16,1.40
2018,07,12,06,17,4.10
2018,07,12,06,18,5.30
2018,07,12,06,19,4.80
2018,07,12,06,20,3.40
2018,07,12,06,21,5.20
2018,07,12,06,22,4.10
2018,07,12,06,23,1.70
2018,07,12,06,24,0.10
2018,07,12,06,25,1.60
2018,07,12,06,26,2.50
2018,07,12,06,27,1.50
2018,07,12,06,28,0.60
2018,07,12,06,29,1.80
2018,07,12,06,30,1.10
2018,07,12,06,31,1.60
2018,07,12,06,32,0.80
2018,07,12,06,33,0.10
2018,07,12,06,34,1.60
2018,07,12,06,35,0.50
2018,07,12,06,36,1.30
2018,07,12,06,37,1.10
2018,07,12,06,38,0.00
2018,07,12,06,39,0.00
2018,07,12,06,40,5.30
2018,07,12,06,41,0.80
2018,07,12,06,42,1.70
2018,07,12,06,43,1.80
2018,07,12,06,44,1.00
2018,07,12,06,45,3.60
2018,07,12,06,46,1.70
2018,07,12,06,47,4.80
2018,07,12,06,48,1.90
2018,07,12,06,49,5.00
2018,07,12,06,50,3.00
2018,07,12,06,51,1.70
2018,07,12,06,52,3.00
2018,07,12,06,53,2.70
2018,07,12,06,54,2.90
2018,07,12,06,55,1.10
2018,07,12,06,56,1.00
2018,07,12,06,57,3.00
2018,07,12,06,58,0.60
2018,07,12,06,59,3.40
2018,07,12,07,00,0.30
2018,07,12,07,01,0.00
2018,07,12,07,02,2.10
2018,07,12,07,03,1.30
2018,07,12,07,04,0.30
2018,07,12,07,05,0.10
2018,07,12,07,06,0.00
2018,07,12,07,07,1.70
2018,07,12,07,08,0.10
2018,07,12,07,09,2.00
2018,07,12,07,10,0.60
2018,07,12,07,11,3.00
2018,07,12,07,12,0.20
2018,07,12,07,13,0.40
2018,07,12,07,14,0.00
2018,07,12,07,15,0.00
2018,07,12,07,16,0.00
2018,07,12,07,17,0.00
2018,07,12,07,18,0.00
2018,07,12,07,19,0.00
2018,07,12,07,20,0.60
2018,07,12,07,21,0.50
2018,07,12,07,22,1.80
2018,07,12,07,23,3.10
2018,07,12,07,24,1.70
2018,07,12,07,25,1.40
2018,07,12,07,26,3.00
2018,07,12,07,27,1.70
2018,07,12,07,28,2.60
2018,07,12,07,29,0.40
2018,07,12,07,30,1.60
2018,07,12,07,31,3.20
2018,07,12,07,32,1.60
2018,07,12,07,33,1.20
2018,07,12,07,34,0.00
2018,07,12,07,35,0.00
2018,07,12,07,36,0.00
2018,07,12,07,37,2.80
2018,07,12,07,38,2.60
2018,07,12,07,39,0.70
2018,07,12,07,40,2.20
2018,07,12,07,41,0.90
2018,07,12,07,42,2.70
2018,07,12,07,43,1.10
2018,07,12,07,44,1.20
2018,07,12,07,45,0.50
2018,07,12,07,46,3.40
2018,07,12,07,47,4.30
2018,07,12,07,48,3.50
2018,07,12,07,49,1.80
2018,07,12,07,50,2.60
2018,07,12,07,51,3.70
2018,07,12,07,52,2.20
2018,07,12,07,53,2.20
2018,07,12,07,54,0.30
2018,07,12,07,55,2.20
2018,07,12,07,56,3.30
2018,07,12,07,57,2.50
2018,07,12,07,58,1.90
2018,07,12,07,59,1.80
2018,07,12,08,00,2.50
2018,07,12,08,01,4.60
2018,07,12,08,02,4.70
2018,07,12,08,03,5.30
2018,07,12,08,04,4.10
2018,07,12,08,05,3.50
2018,07,12,08,06,6.40
2018,07,12,08,07,4.00
2018,07,12,08,08,5.80
2018,07,12,08,09,1.40
2018,07,12,08,10,1.60
2018,07,12,08,11,1.60
2018,07,12,08,12,1.60
2018,07,12,08,13,2.40
2018,07,12,08,14,5.30
2018,07,12,08,15,3.50
2018,07,12,08,16,4.30
2018,07,12,08,17,3.90
2018,07,12,08,18,6.90
2018,07,12,08,19,7.20
2018,07,12,08,20,3.10
2018,07,12,08,21,4.00
2018,07,12,08,22,5.80
2018,07,12,08,23,4.10
2018,07,12,08,24,4.30
2018,07,12,08,25,4.20
2018,07,12,08,26,3.60
2018,07,12,08,27,4.20
2018,07,12,08,28,4.10
2018,07,12,08,29,2.20
2018,07,12,08,30,2.50
2018,07,12,08,31,0.00
2018,07,12,08,32,0.70
2018,07,12,08,33,4.70
2018,07,12,08,34,4.00
2018,07,12,08,35,1.60
2018,07,12,08,36,3.70
2018,07,12,08,37,5.80
2018,07,12,08,38,5.10
2018,07,12,08,39,4.60
2018,07,12,08,40,3.20
2018,07,12,08,41,8.60
2018,07,12,08,42,7.20
2018,07,12,08,43,3.00
2018,07,12,08,44,4.10
2018,07,12,08,45,4.50
2018,07,12,08,46,6.30
2018,07,12,08,47,3.30
2018,07,12,08,48,5.60
2018,07,12,08,49,4.50
2018,07,12,08,50,6.00
2018,07,12,08,51,8.90
2018,07,12,08,52,4.80
2018,07,12,08,53,4.50
2018,07,12,08,54,5.20
2018,07,12,08,55,3.90
2018,07,12,08,56,1.20
2018,07,12,08,57,0.90
2018,07,12,08,58,1.50
2018,07,12,08,59,3.60
2018,07,12,09,00,1.30
2018,07,12,09,01,2.20
2018,07,12,09,02,1.40
2018,07,12,09,03,0.00
2018,07,12,09,04,1.20
2018,07,12,09,05,2.30
2018,07,12,09,06,1.60
2018,07,12,09,07,5.30
2018,07,12,09,08,5.50
2018,07,12,09,09,7.40
2018,07,12,09,10,3.60
2018,07,12,09,11,3.00
2018,07,12,09,12,0.00
2018,07,12,09,13,0.00
2018,07,12,09,14,0.00
2018,07,12,09,15,1.80
2018,07,12,09,16,4.50
2018,07,12,09,17,2.10
2018,07,12,09,18,2.40
2018,07,12,09,19,3.40
2018,07,12,09,20,2.10
2018,07,12,09,21,0.50
2018,07,12,09,22,1.40
2018,07,12,09,23,6.50
2018,07,12,09,24,3.60
2018,07,12,09,25,4.90
2018,07,12,09,26,4.40
2018,07,12,09,27,7.90
2018,07,12,09,28,4.00
2018,07,12,09,29,5.50
2018,07,12,09,30,5.50
2018,07,12,09,31,6.20
2018,07,12,09,32,7.90
2018,07,12,09,33,4.40
2018,07,12,09,34,8.00
2018,07,12,09,35,5.50
2018,07,12,09,36,6.20
2018,07,12,09,37,8.30
2018,07,12,09,38,5.60
2018,07,12,09,39,3.50
2018,07,12,09,40,4.20
2018,07,12,09,41,2.00
2018,07,12,09,42,3.30
2018,07,12,09,43,4.20
2018,07,12,09,44,4.50
2018,07,12,09,45,2.80
2018,07,12,09,46,2.90
2018,07,12,09,47,1.40
2018,07,12,09,48,1.30
2018,07,12,09,49,3.40
2018,07,12,09,50,2.10
2018,07,12,09,51,1.20
2018,07,12,09,52,0.00
2018,07,12,09,53,2.60
2018,07,12,09,54,2.40
2018,07,12,09,55,4.90
2018,07,12,09,56,2.90
2018,07,12,09,57,5.30
2018,07,12,09,58,5.40
2018,07,12,09,59,4.70
2018,07,12,10,00,5.20
2018,07,12,10,01,4.60
2018,07,12,10,02,1.70
2018,07,12,10,03,1.60
2018,07,12,10,04,1.90
2018,07,12,10,05,1.40
2018,07,12,10,06,0.00
2018,07,12,10,07,0.10
2018,07,12,10,08,2.50
2018,07,12,10,09,7.70
2018,07,12,10,10,5.70
2018,07,12,10,11,2.50
2018,07,12,10,12,5.60
2018,07,12,10,13,3.80
2018,07,12,10,14,3.90
2018,07,12,10,15,2.00
2018,07,12,10,16,2.60
2018,07,12,10,17,0.20
2018,07,12,10,18,2.30
2018,07,12,10,19,4.10
2018,07,12,10,20,2.90
2018,07,12,10,21,0.00
2018,07,12,10,22,0.60
2018,07,12,10,23,1.70
2018,07,12,10,24,0.70
2018,07,12,10,25,3.80
2018,07,12,10,26,5.60
2018,07,12,10,27,5.80
2018,07,12,10,28,3.30
2018,07,12,10,29,4.60
2018,07,12,10,30,4.90
2018,07,12,10,31,4.80
2018,07,12,10,32,2.00
2018,07,12,10,33,0.40
2018,07,12,10,34,2.40
2018,07,12,10,35,3.20
2018,07,12,10,36,4.80
2018,07,12,10,37,4.90
2018,07,12,10,38,4.90
2018,07,12,10,39,6.60
2018,07,12,10,40,8.50
2018,07,12,10,41,5.00
2018,07,12,10,42,3.70
2018,07,12,10,43,7.30
2018,07,12,10,44,4.40
2018,07,12,10,45,5.00
2018,07,12,10,46,6.30
2018,07,12,10,47,5.40
2018,07,12,10,48,7.50
2018,07,12,10,49,3.00
2018,07,12,10,50,5.20
2018,07,12,10,51,3.20
2018,07,12,10,52,3.30
2018,07,12,10,53,4.50
2018,07,12,10,54,4.30
2018,07,12,10,55,3.80
2018,07,12,10,56,4.00
2018,07,12,10,57,5.20
2018,07,12,10,58,4.40
2018,07,12,10,59,5.10
2018,07,12,11,00,6.10
2018,07,12,11,01,6.60
2018,07,12,11,02,4.50
2018,07,12,11,03,3.60
2018,07,12,11,04,8.00
2018,07,12,11,05,8.30
2018,07,12,11,06,4.40
2018,07,12,11,07,6.60
2018,07,12,11,08,5.90
2018,07,12,11,09,2.10
2018,07,12,11,10,6.40
2018,07,12,11,11,5.20
2018,07,12,11,12,11.00
2018,07,12,11,13,6.70
2018,07,12,11,14,7.90
2018,07,12,11,15,8.30
2018,07,12,11,16,10.20
2018,07,12,11,17,9.10
2018,07,12,11,18,9.90
2018,07,12,11,19,10.40
2018,07,12,11,20,10.50
2018,07,12,11,21,7.60
2018,07,12,11,22,7.70
2018,07,12,11,23,8.50
2018,07,12,11,24,9.20
2018,07,12,11,25,8.20
2018,07,12,11,26,6.90
2018,07,12,11,27,5.70
2018,07,12,11,28,6.50
2018,07,12,11,29,4.30
2018,07,12,11,30,10.90
2018,07,12,11,31,10.20
2018,07,12,11,32,5.60
2018,07,12,11,33,9.50
2018,07,12,11,34,6.20
2018,07,12,11,35,1.80
2018,07,12,11,36,6.20
2018,07,12,11,37,3.70
2018,07,12,11,38,7.80
2018,07,12,11,39,4.10
2018,07,12,11,40,6.50
2018,07,12,11,41,2.40
2018,07,12,11,42,4.10
2018,07,12,11,43,10.30
2018,07,12,11,44,9.00
2018,07,12,11,45,6.80
2018,07,12,11,46,5.20
2018,07,12,11,47,5.40
2018,07,12,11,48,6.40
2018,07,12,11,49,5.50
2018,07,12,11,50,6.70
2018,07,12,11,51,4.90
2018,07,12,11,52,5.40
2018,07,12,11,53,5.10
2018,07,12,11,54,5.40
2018,07,12,11,55,8.10
2018,07,12,11,56,5.50
2018,07,12,11,57,5.00
2018,07,12,11,58,5.50
2018,07,12,11,59,4.90
2018,07,12,12,00,2.10
2018,07,12,12,01,5.20
2018,07,12,12,02,7.20
2018,07,12,12,03,5.10
2018,07,12,12,04,3.10
2018,07,12,12,05,3.50
2018,07,12,12,06,7.70
2018,07,12,12,07,5.90
2018,07,12,12,08,4.00
2018,07,12,12,09,4.40
2018,07,12,12,10,10.80
2018,07,12,12,11,5.90
2018,07,12,12,12,6.50
2018,07,12,12,13,3.90
2018,07,12,12,14,7.20
2018,07,12,12,15,6.20
2018,07,12,12,16,10.00
2018,07,12,12,17,6.10
2018,07,12,12,18,4.00
2018,07,12,12,19,5.90
2018,07,12,12,20,13.30
2018,07,12,12,21,6.20
2018,07,12,12,22,8.50
2018,07,12,12,23,4.50
2018,07,12,12,24,3.50
2018,07,12,12,25,5.20
2018,07,12,12,26,6.60
2018,07,12,12,27,5.40
2018,07,12,12,28,4.20
2018,07,12,12,29,4.40
2018,07,12,12,30,4.40
2018,07,12,12,31,4.40
2018,07,12,12,32,6.60
2018,07,12,12,33,7.50
2018,07,12,12,34,6.70
2018,07,12,12,35,4.90
2018,07,12,12,36,4.70
2018,07,12,12,37,10.10
2018,07,12,12,38,4.70
2018,07,12,12,39,5.20
2018,07,12,12,40,4.90
2018,07,12,12,41,4.90
2018,07,12,12,42,6.00
2018,07,12,12,43,7.70
2018,07,12,12,44,8.60
2018,07,12,12,45,6.90
2018,07,12,12,46,5.50
2018,07,12,12,47,6.70
2018,07,12,12,48,5.40
2018,07,12,12,49,6.70
2018,07,12,12,50,5.50
2018,07,12,12,51,3.80
2018,07,12,12,52,6.20
2018,07,12,12,53,4.10
2018,07,12,12,54,5.40
2018,07,12,12,55,4.80
2018,07,12,12,56,4.90
2018,07,12,12,57,4.20
2018,07,12,12,58,2.40
2018,07,12,12,59,4.60
2018,07,12,13,00,5.40
2018,07,12,13,01,5.20
2018,07,12,13,02,6.20
2018,07,12,13,03,5.30
2018,07,12,13,04,5.10
2018,07,12,13,05,5.00
2018,07,12,13,06,4.90
2018,07,12,13,07,4.90
2018,07,12,13,08,5.70
2018,07,12,13,09,6.20
2018,07,12,13,10,5.40
2018,07,12,13,11,3.90
2018,07,12,13,12,5.60
2018,07,12,13,13,4.80
2018,07,12,13,14,4.50
2018,07,12,13,15,4.70
2018,07,12,13,16,4.30
2018,07,12,13,17,3.60
2018,07,12,13,18,1.60
2018,07,12,13,19,2.00
2018,07,12,13,20,1.70
2018,07,12,13,21,0.00
2018,07,12,13,22,0.20
2018,07,12,13,23,0.70
2018,07,12,13,24,0.20
2018,07,12,13,25,3.40
2018,07,12,13,26,1.10
2018,07,12,13,27,1.20
2018,07,12,13,28,4.90
2018,07,12,13,29,0.60
2018,07,12,13,30,0.80
2018,07,12,13,31,3.80
2018,07,12,13,32,5.90
2018,07,12,13,33,4.20
2018,07,12,13,34,4.00
2018,07,12,13,35,4.50
2018,07,12,13,36,3.50
2018,07,12,13,37,2.00
2018,07,12,13,38,2.80
2018,07,12,13,39,1.30
2018,07,12,13,40,1.80
2018,07,12,13,41,4.50
2018,07,12,13,42,4.50
2018,07,12,13,43,3.00
2018,07,12,13,44,2.60
2018,07,12,13,45,4.10
2018,07,12,13,46,4.60
2018,07,12,13,47,4.80
2018,07,12,13,48,4.20
2018,07,12,13,49,3.30
2018,07,12,13,50,1.30
2018,07,12,13,51,1.00
2018,07,12,13,52,2.00
2018,07,12,13,53,3.50
2018,07,12,13,54,0.70
2018,07,12,13,55,0.20
2018,07,12,13,56,2.00
2018,07,12,13,57,1.10
2018,07,12,13,58,1.80
2018,07,12,13,59,3.70
2018,07,12,14,00,2.50
2018,07,12,14,01,2.50
2018,07,12,14,02,2.00
2018,07,12,14,03,3.10
2018,07,12,14,04,2.10
2018,07,12,14,05,0.60
2018,07,12,14,06,2.80
2018,07,12,14,07,2.40
2018,07,12,14,08,3.20
2018,07,12,14,09,3.10
2018,07,12,14,10,2.30
2018,07,12,14,11,3.30
2018,07,12,14,12,3.80
2018,07,12,14,13,3.40
2018,07,12,14,14,4.30
2018,07,12,14,15,3.00
2018,07,12,14,16,2.80
2018,07,12,14,17,4.10
2018,07,12,14,18,3.20
2018,07,12,14,19,1.80
2018,07,12,14,20,3.10
2018,07,12,14,21,3.70
2018,07,12,14,22,4.00
2018,07,12,14,23,5.10
2018,07,12,14,24,4.90
2018,07,12,14,25,4.60
2018,07,12,14,26,4.20
2018,07,12,14,27,2.40
2018,07,12,14,28,2.20
2018,07,12,14,29,0.00
2018,07,12,14,30,1.20
2018,07,12,14,31,3.00
2018,07,12,14,32,3.60
2018,07,12,14,33,3.60
2018,07,12,14,34,4.30
2018,07,12,14,35,4.30
2018,07,12,14,36,3.30
2018,07,12,14,37,2.60
2018,07,12,14,38,1.40
2018,07,12,14,39,1.20
2018,07,12,14,40,1.40
2018,07,12,14,41,1.00
2018,07,12,14,42,1.60
2018,07,12,14,43,3.10
2018,07,12,14,44,2.50
2018,07,12,14,45,2.10
2018,07,12,14,46,1.20
2018,07,12,14,47,1.10
2018,07,12,14,48,5.10
2018,07,12,14,49,3.40
2018,07,12,14,50,3.70
2018,07,12,14,51,2.50
2018,07,12,14,52,1.20
2018,07,12,14,53,4.20
2018,07,12,14,54,2.60
2018,07,12,14,55,0.30
2018,07,12,14,56,0.00
2018,07,12,14,57,0.00
2018,07,12,14,58,0.00
2018,07,12,14,59,0.00
2018,07,12,15,00,0.00
2018,07,12,15,01,0.00
2018,07,12,15,02,0.00
2018,07,12,15,03,0.00
2018,07,12,15,04,1.10
2018,07,12,15,05,2.80
2018,07,12,15,06,3.00
2018,07,12,15,07,3.00
2018,07,12,15,08,2.30
2018,07,12,15,09,3.60
2018,07,12,15,10,6.70
2018,07,12,15,11,6.40
2018,07,12,15,12,5.80
2018,07,12,15,13,5.20
2018,07,12,15,14,6.00
2018,07,12,15,15,5.50
2018,07,12,15,16,5.70
2018,07,12,15,17,5.90
2018,07,12,15,18,6.20
2018,07,12,15,19,5.60
2018,07,12,15,20,5.30
2018,07,12,15,21,5.30
2018,07,12,15,22,5.20
2018,07,12,15,23,5.80
2018,07,12,15,24,6.20
2018,07,12,15,25,6.10
2018,07,12,15,26,5.70
2018,07,12,15,27,5.50
2018,07,12,15,28,4.90
2018,07,12,15,29,5.20
2018,07,12,15,30,5.50
2018,07,12,15,31,6.10
2018,07,12,15,32,3.70
2018,07,12,15,33,3.10
2018,07,12,15,34,3.30
2018,07,12,15,35,3.50
2018,07,12,15,36,3.60
2018,07,12,15,37,4.10
2018,07,12,15,38,4.70
2018,07,12,15,39,4.80
2018,07,12,15,40,4.00
2018,07,12,15,41,4.70
2018,07,12,15,42,4.80
2018,07,12,15,43,3.60
2018,07,12,15,44,3.40
2018,07,12,15,45,3.00
2018,07,12,15,46,3.30
2018,07,12,15,47,3.20
2018,07,12,15,48,2.60
2018,07,12,15,49,2.40
2018,07,12,15,50,2.90
2018,07,12,15,51,3.00
2018,07,12,15,52,2.40
2018,07,12,15,53,2.20
2018,07,12,15,54,2.60
2018,07,12,15,55,3.00
2018,07,12,15,56,3.20
2018,07,12,15,57,2.60
2018,07,12,15,58,2.50
2018,07,12,15,59,3.40
2018,07,12,16,00,2.90
2018,07,12,16,01,2.60
2018,07,12,16,02,2.70
2018,07,12,16,03,2.60
2018,07,12,16,04,2.50
2018,07,12,16,05,2.50
2018,07,12,16,06,2.40
2018,07,12,16,07,3.00
2018,07,12,16,08,1.90
2018,07,12,16,09,1.20
2018,07,12,16,10,3.20
2018,07,12,16,11,2.50
2018,07,12,16,12,2.30
2018,07,12,16,13,2.10
2018,07,12,16,14,2.10
2018,07,12,16,15,2.60
2018,07,12,16,16,2.40
2018,07,12,16,17,1.30
2018,07,12,16,18,1.80
2018,07,12,16,19,1.10
2018,07,12,16,20,1.30
2018,07,12,16,21,2.00
2018,07,12,16,22,2.30
2018,07,12,16,23,2.00
2018,07,12,16,24,0.50
2018,07,12,16,25,2.40
2018,07,12,16,26,2.20
2018,07,12,16,27,1.70
2018,07,12,16,28,1.80
2018,07,12,16,29,2.00
2018,07,12,16,30,1.60
2018,07,12,16,31,1.20
2018,07,12,16,32,1.70
2018,07,12,16,33,2.20
2018,07,12,16,34,2.40
2018,07,12,16,35,2.40
2018,07,12,16,36,2.70
2018,07,12,16,37,1.70
2018,07,12,16,38,1.30
2018,07,12,16,39,2.10
2018,07,12,16,40,2.80
2018,07,12,16,41,3.00
2018,07,12,16,42,2.50
2018,07,12,16,43,2.80
2018,07,12,16,44,2.20
2018,07,12,16,45,2.80
2018,07,12,16,46,2.70
2018,07,12,16,47,2.80
2018,07,12,16,48,1.20
2018,07,12,16,49,2.30
2018,07,12,16,50,2.40
2018,07,12,16,51,3.20
2018,07,12,16,52,2.70
2018,07,12,16,53,3.00
2018,07,12,16,54,3.30
2018,07,12,16,55,3.10
2018,07,12,16,56,1.80
2018,07,12,16,57,0.00
2018,07,12,16,58,2.60
2018,07,12,16,59,2.20
2018,07,12,17,00,2.60
2018,07,12,17,01,3.20
2018,07,12,17,02,2.60
2018,07,12,17,03,3.00
2018,07,12,17,04,4.10
2018,07,12,17,05,4.10
2018,07,12,17,06,3.30
2018,07,12,17,07,3.00
2018,07,12,17,08,3.00
2018,07,12,17,09,3.60
2018,07,12,17,10,3.20
2018,07,12,17,11,3.20
2018,07,12,17,12,3.30
2018,07,12,17,13,3.30
2018,07,12,17,14,3.10
2018,07,12,17,15,2.00
2018,07,12,17,16,2.20
2018,07,12,17,17,0.50
2018,07,12,17,18,0.00
2018,07,12,17,19,0.00
2018,07,12,17,20,2.90
2018,07,12,17,21,2.90
2018,07,12,17,22,2.60
2018,07,12,17,23,0.30
2018,07,12,17,24,0.00
2018,07,12,17,25,0.00
2018,07,12,17,26,0.00
2018,07,12,17,27,0.00
2018,07,12,17,28,0.00
2018,07,12,17,29,0.00
2018,07,12,17,30,0.00
2018,07,12,17,31,0.00
2018,07,12,17,32,0.00
2018,07,12,17,33,0.00
2018,07,12,17,34,0.00
2018,07,12,17,35,0.00
2018,07,12,17,36,0.00
2018,07,12,17,37,0.00
2018,07,12,17,38,0.00
2018,07,12,17,39,0.00
2018,07,12,17,40,0.00
2018,07,12,17,41,0.00
2018,07,12,17,42,0.00
2018,07,12,17,43,0.00
2018,07,12,17,44,0.00
2018,07,12,17,45,0.00
2018,07,12,17,46,0.00
2018,07,12,17,47,0.00
2018,07,12,17,48,0.00
2018,07,12,17,49,0.00
2018,07,12,17,50,0.00
2018,07,12,17,51,0.00
2018,07,12,17,52,0.00
2018,07,12,17,53,0.00
2018,07,12,17,54,0.00
2018,07,12,17,55,0.00
2018,07,12,17,56,0.00
2018,07,12,17,57,0.00
2018,07,12,17,58,0.00
2018,07,12,17,59,0.00
2018,07,12,18,00,0.00
2018,07,12,18,01,0.00
2018,07,12,18,02,1.20
2018,07,12,18,03,1.80
2018,07,12,18,04,1.70
2018,07,12,18,05,1.60
2018,07,12,18,06,2.30